EAA1968 LROP-LRSM

Flight info

Callsign EAA1968
Flight time 0h 48m
Altitude 34000
Route BUKEL DCT EDETA DCT ANAVU/N0357F100 T90 JIBOU
Aircraft A320/M-SDE3FGHIRWY/LB1

Departure

Time 2026-05-04 23:33
Airport Bucharest Henri Coandă International Airport (LROP)

Arrival

Time 2026-05-05 00:21
Airport Satu Mare International Airport (LRSM)
Time Latitude Longitude Altitude Speed Heading
2026-05-04 23:29 44.56880 26.08190 313 ft 0 kts 351°
2026-05-04 23:30 44.56893 26.08193 312 ft 2 kts 25°
2026-05-04 23:30 44.56895 26.08202 312 ft 0 kts 66°
2026-05-04 23:30 44.56897 26.08209 313 ft 6 kts 71°
2026-05-04 23:30 44.56921 26.08427 314 ft 35 kts 85°
2026-05-04 23:31 44.56976 26.08563 315 ft 15 kts 340°
2026-05-04 23:31 44.57087 26.08519 316 ft 26 kts 355°
2026-05-04 23:31 44.57317 26.08491 319 ft 30 kts 354°
2026-05-04 23:31 44.57507 26.08464 321 ft 26 kts 354°
2026-05-04 23:32 44.57645 26.08472 323 ft 19 kts 35°
2026-05-04 23:32 44.57683 26.08769 319 ft 65 kts 84°
2026-05-04 23:32 44.57762 26.09822 319 ft 147 kts 83°
2026-05-04 23:32 44.57897 26.11492 654 ft 177 kts 82°
2026-05-04 23:33 44.58002 26.13160 1696 ft 171 kts 88°
2026-05-04 23:33 44.57931 26.14941 2395 ft 195 kts 91°
2026-05-04 23:33 44.57834 26.16946 3033 ft 217 kts 90°
2026-05-04 23:33 44.57775 26.19148 3535 ft 240 kts 88°
2026-05-04 23:34 44.57778 26.21605 4281 ft 253 kts 85°
2026-05-04 23:34 44.57840 26.24043 5311 ft 253 kts 83°
2026-05-04 23:34 44.57950 26.26532 6437 ft 251 kts 81°
2026-05-04 23:34 44.58088 26.28932 7447 ft 251 kts 80°
2026-05-04 23:35 44.58249 26.31382 8398 ft 254 kts 80°
2026-05-04 23:35 44.58440 26.33857 9323 ft 256 kts 75°
2026-05-04 23:35 44.59099 26.36135 9969 ft 253 kts 51°
2026-05-04 23:35 44.60429 26.37738 10481 ft 257 kts 28°
2026-05-04 23:36 44.61581 26.38286 10814 ft 264 kts 13°
2026-05-04 23:36 44.64108 26.37728 10988 ft 303 kts 335°
2026-05-04 23:36 44.65791 26.35762 11114 ft 325 kts 321°
2026-05-04 23:36 44.66889 26.34230 11200 ft 333 kts 322°
2026-05-04 23:37 44.68785 26.32381 11323 ft 333 kts 341°
2026-05-04 23:37 44.71010 26.31576 11453 ft 333 kts 357°
2026-05-04 23:37 44.73340 26.31198 11580 ft 340 kts 358°
2026-05-04 23:37 44.75714 26.30862 11756 ft 345 kts 358°
2026-05-04 23:38 44.78082 26.30526 11971 ft 348 kts 356°
2026-05-04 23:38 44.80446 26.29649 12198 ft 357 kts 342°
2026-05-04 23:38 44.82645 26.27941 12434 ft 366 kts 328°
2026-05-04 23:38 44.84518 26.25460 12674 ft 376 kts 314°
2026-05-04 23:39 44.85995 26.22376 12879 ft 382 kts 306°
2026-05-04 23:39 44.87395 26.19178 13114 ft 385 kts 306°
2026-05-04 23:39 44.88815 26.15944 13836 ft 389 kts 306°
2026-05-04 23:39 44.90253 26.12682 14499 ft 393 kts 306°
2026-05-04 23:40 44.91705 26.09397 15156 ft 397 kts 305°
2026-05-04 23:40 44.93170 26.06075 15806 ft 400 kts 305°
2026-05-04 23:40 44.94646 26.02720 16437 ft 405 kts 306°
2026-05-04 23:40 44.96132 25.99335 17046 ft 410 kts 306°
2026-05-04 23:41 44.97638 25.95893 17650 ft 415 kts 306°
2026-05-04 23:41 44.99162 25.92403 18276 ft 419 kts 306°
2026-05-04 23:41 45.00699 25.88882 18843 ft 423 kts 305°
2026-05-04 23:41 45.02252 25.85318 19374 ft 427 kts 305°
2026-05-04 23:42 45.03809 25.81741 19923 ft 430 kts 304°
2026-05-04 23:42 45.05380 25.78127 20464 ft 433 kts 304°
2026-05-04 23:42 45.07062 25.74592 20963 ft 433 kts 311°
2026-05-04 23:42 45.09098 25.71461 21478 ft 432 kts 321°
2026-05-04 23:43 45.11441 25.68823 21968 ft 431 kts 328°
2026-05-04 23:43 45.13889 25.66342 22446 ft 434 kts 327°
2026-05-04 23:43 45.16351 25.63840 22909 ft 437 kts 327°
2026-05-04 23:43 45.18826 25.61314 23368 ft 440 kts 327°
2026-05-04 23:44 45.21316 25.58765 23775 ft 442 kts 327°
2026-05-04 23:44 45.23785 25.56227 23904 ft 436 kts 327°
2026-05-04 23:44 45.26226 25.53711 24017 ft 431 kts 327°
2026-05-04 23:44 45.28636 25.51223 24126 ft 426 kts 328°
2026-05-04 23:45 45.31009 25.48769 24322 ft 418 kts 329°
2026-05-04 23:45 45.33334 25.46361 24601 ft 409 kts 329°
2026-05-04 23:45 45.35613 25.44005 24888 ft 401 kts 329°
2026-05-04 23:45 45.37855 25.41691 25183 ft 396 kts 329°
2026-05-04 23:46 45.40071 25.39408 25473 ft 390 kts 330°
2026-05-04 23:46 45.42255 25.37158 25770 ft 385 kts 330°
2026-05-04 23:46 45.44403 25.34937 26059 ft 380 kts 329°
2026-05-04 23:46 45.46535 25.32727 26373 ft 377 kts 330°
2026-05-04 23:47 45.48646 25.30542 26677 ft 373 kts 330°
2026-05-04 23:47 45.50769 25.28351 26978 ft 381 kts 331°
2026-05-04 23:47 45.52934 25.26115 27298 ft 389 kts 330°
2026-05-04 23:47 45.55144 25.23826 27614 ft 396 kts 330°
2026-05-04 23:48 45.57387 25.21491 27936 ft 402 kts 330°
2026-05-04 23:48 45.59661 25.19119 28246 ft 407 kts 330°
2026-05-04 23:48 45.61962 25.16717 28576 ft 412 kts 330°
2026-05-04 23:48 45.64255 25.14323 28912 ft 416 kts 330°
2026-05-04 23:49 45.66603 25.11869 29248 ft 420 kts 330°
2026-05-04 23:49 45.68972 25.09387 29591 ft 424 kts 330°
2026-05-04 23:49 45.71359 25.06883 29900 ft 427 kts 329°
2026-05-04 23:49 45.73759 25.04361 30232 ft 429 kts 329°
2026-05-04 23:50 45.76164 25.01827 30542 ft 431 kts 329°
2026-05-04 23:50 45.78584 24.99278 30836 ft 432 kts 329°
2026-05-04 23:50 45.81012 24.96721 31137 ft 434 kts 329°
2026-05-04 23:50 45.83441 24.94162 31437 ft 435 kts 329°
2026-05-04 23:51 45.85881 24.91593 31745 ft 435 kts 329°
2026-05-04 23:51 45.88322 24.89014 32044 ft 436 kts 329°
2026-05-04 23:51 45.90767 24.86424 32351 ft 437 kts 329°
2026-05-04 23:51 45.93213 24.83832 32640 ft 437 kts 329°
2026-05-04 23:52 45.95660 24.81237 32958 ft 437 kts 329°
2026-05-04 23:52 45.98108 24.78638 33281 ft 437 kts 329°
2026-05-04 23:52 46.00557 24.76038 33607 ft 437 kts 329°
2026-05-04 23:52 46.03005 24.73438 33947 ft 437 kts 329°
2026-05-04 23:53 46.05453 24.70839 34109 ft 440 kts 329°
2026-05-04 23:53 46.07930 24.68207 34143 ft 442 kts 328°
2026-05-04 23:53 46.12882 24.62921 34137 ft 443 kts 328°
2026-05-04 23:54 46.17834 24.57616 34143 ft 442 kts 328°
2026-05-04 23:54 46.22755 24.52336 34136 ft 436 kts 328°
2026-05-04 23:55 46.27567 24.47151 34132 ft 427 kts 328°
2026-05-04 23:56 46.34616 24.39559 34141 ft 417 kts 328°
2026-05-04 23:56 46.39232 24.34575 34139 ft 411 kts 328°
2026-05-04 23:57 46.43788 24.29641 34145 ft 407 kts 328°
2026-05-04 23:57 46.48293 24.24749 34144 ft 403 kts 328°
2026-05-04 23:58 46.52735 24.19914 34143 ft 400 kts 328°
2026-05-04 23:58 46.57164 24.15088 34140 ft 397 kts 328°
2026-05-04 23:59 46.61555 24.10293 34143 ft 394 kts 328°
2026-05-04 23:59 46.65902 24.05527 34143 ft 392 kts 328°
2026-05-05 00:00 46.70246 24.00767 34142 ft 390 kts 328°
2026-05-05 00:00 46.74574 23.96022 34119 ft 388 kts 328°
2026-05-05 00:01 46.78910 23.91246 34126 ft 398 kts 328°
2026-05-05 00:01 46.83434 23.86262 34115 ft 417 kts 327°
2026-05-05 00:02 46.88165 23.81041 33965 ft 435 kts 327°
2026-05-05 00:02 46.90591 23.78356 33601 ft 439 kts 327°
2026-05-05 00:02 46.93025 23.75652 33244 ft 441 kts 327°
2026-05-05 00:02 46.95477 23.72923 32901 ft 442 kts 327°
2026-05-05 00:03 46.97888 23.70235 32560 ft 437 kts 327°
2026-05-05 00:03 47.00300 23.67536 32212 ft 426 kts 327°
2026-05-05 00:03 47.02625 23.64932 31872 ft 415 kts 327°
2026-05-05 00:03 47.04897 23.62395 31530 ft 406 kts 327°
2026-05-05 00:04 47.07119 23.59910 31205 ft 397 kts 327°
2026-05-05 00:04 47.09263 23.57517 30889 ft 389 kts 327°
2026-05-05 00:04 47.11403 23.55128 30585 ft 382 kts 327°
2026-05-05 00:04 47.13490 23.52793 30246 ft 371 kts 327°
2026-05-05 00:05 47.15494 23.50537 29877 ft 354 kts 327°
2026-05-05 00:05 47.17405 23.48381 29503 ft 340 kts 327°
2026-05-05 00:05 47.19264 23.46288 29142 ft 333 kts 327°
2026-05-05 00:05 47.21095 23.44234 28778 ft 329 kts 327°
2026-05-05 00:06 47.22904 23.42205 28418 ft 325 kts 327°
2026-05-05 00:06 47.24695 23.40196 28065 ft 322 kts 327°
2026-05-05 00:06 47.26469 23.38201 27703 ft 320 kts 327°
2026-05-05 00:06 47.28233 23.36214 27349 ft 319 kts 327°
2026-05-05 00:07 47.30004 23.34221 27010 ft 325 kts 327°
2026-05-05 00:07 47.31812 23.32190 26675 ft 328 kts 327°
2026-05-05 00:07 47.33625 23.30144 26345 ft 328 kts 326°
2026-05-05 00:07 47.35435 23.28095 26022 ft 328 kts 326°
2026-05-05 00:08 47.37237 23.26047 25696 ft 326 kts 326°
2026-05-05 00:08 47.39026 23.24011 25370 ft 324 kts 326°
2026-05-05 00:08 47.40808 23.21985 25055 ft 323 kts 326°
2026-05-05 00:08 47.42578 23.19970 24739 ft 321 kts 326°
2026-05-05 00:09 47.44347 23.17954 24427 ft 320 kts 326°
2026-05-05 00:09 47.46106 23.15951 24120 ft 319 kts 326°
2026-05-05 00:09 47.47838 23.13982 23818 ft 317 kts 326°
2026-05-05 00:09 47.49611 23.11969 23292 ft 319 kts 327°
2026-05-05 00:10 47.51404 23.10089 22720 ft 320 kts 330°
2026-05-05 00:10 47.53267 23.08278 22166 ft 322 kts 331°
2026-05-05 00:10 47.55163 23.06486 21600 ft 325 kts 331°
2026-05-05 00:10 47.57075 23.04684 21057 ft 327 kts 331°
2026-05-05 00:11 47.58997 23.02852 20517 ft 330 kts 331°
2026-05-05 00:11 47.60928 23.00990 19918 ft 334 kts 330°
2026-05-05 00:11 47.62902 22.99070 19104 ft 345 kts 330°
2026-05-05 00:11 47.64930 22.97089 18302 ft 354 kts 330°
2026-05-05 00:12 47.67014 22.95046 17353 ft 363 kts 330°
2026-05-05 00:12 47.69153 22.92945 16189 ft 371 kts 330°
2026-05-05 00:12 47.71440 22.91328 15088 ft 360 kts 351°
2026-05-05 00:12 47.73832 22.91254 14554 ft 329 kts 14°
2026-05-05 00:13 47.75848 22.92387 14382 ft 294 kts 33°
2026-05-05 00:13 47.77497 22.93927 14234 ft 269 kts 34°
2026-05-05 00:13 47.79046 22.95390 13758 ft 260 kts 35°
2026-05-05 00:13 47.80561 22.96831 13112 ft 257 kts 35°
2026-05-05 00:14 47.82063 22.98268 12467 ft 256 kts 35°
2026-05-05 00:14 47.83555 22.99701 11829 ft 255 kts 35°
2026-05-05 00:14 47.85042 23.01127 11204 ft 254 kts 35°
2026-05-05 00:14 47.86525 23.02550 10583 ft 253 kts 34°
2026-05-05 00:15 47.88160 23.03472 9981 ft 256 kts
2026-05-05 00:15 47.89879 23.02837 9343 ft 261 kts 329°
2026-05-05 00:15 47.91038 23.00796 8695 ft 261 kts 293°
2026-05-05 00:15 47.91231 22.98185 7690 ft 251 kts 259°
2026-05-05 00:16 47.90421 22.95988 6426 ft 242 kts 223°
2026-05-05 00:16 47.88969 22.94862 5326 ft 232 kts 195°
2026-05-05 00:16 47.87518 22.94401 5210 ft 199 kts 193°
2026-05-05 00:16 47.86266 22.94006 5163 ft 170 kts 193°
2026-05-05 00:17 47.85142 22.93640 4806 ft 162 kts 194°
2026-05-05 00:17 47.84065 22.93272 4411 ft 157 kts 194°
2026-05-05 00:17 47.83012 22.92899 4084 ft 154 kts 195°
2026-05-05 00:17 47.81981 22.92524 3701 ft 154 kts 195°
2026-05-05 00:18 47.80947 22.92141 3301 ft 153 kts 196°
2026-05-05 00:18 47.79916 22.91779 2927 ft 152 kts 194°
2026-05-05 00:18 47.78880 22.91436 2517 ft 153 kts 194°
2026-05-05 00:18 47.77838 22.91091 2087 ft 154 kts 194°
2026-05-05 00:19 47.76790 22.90742 1655 ft 155 kts 194°
2026-05-05 00:19 47.75737 22.90388 1215 ft 155 kts 193°
2026-05-05 00:19 47.74721 22.90045 1006 ft 147 kts 193°
2026-05-05 00:19 47.73739 22.89713 828 ft 143 kts 193°
2026-05-05 00:20 47.72770 22.89383 727 ft 142 kts 193°
2026-05-05 00:20 47.71810 22.89055 633 ft 143 kts 193°
2026-05-05 00:20 47.70851 22.88772 415 ft 132 kts 201°
2026-05-05 00:20 47.70080 22.88435 421 ft 67 kts 196°
2026-05-05 00:21 47.69921 22.88328 417 ft 0 kts 224°
2026-05-05 00:21 47.69920 22.88326 417 ft 4 kts 227°
2026-05-05 00:21 47.69925 22.88288 416 ft 16 kts 322°
2026-05-05 00:22 47.69989 22.88308 421 ft 0 kts 38°
2026-05-05 00:22 47.69990 22.88310 421 ft 4 kts 38°
2026-05-05 00:22 47.70038 22.88411 421 ft 5 kts 73°
2026-05-05 00:22 47.70037 22.88413 421 ft 0 kts 89°
2026-05-05 00:23 47.70036 22.88416 421 ft 0 kts 94°